Location: Newark
(25.6108°S, 54.5803°W)
Time: 20:46:13
(UTC+00:00)

Courier 1B - Pass Details

Date: 05 November 2020
Orbit: 962 x 1209 km, 28.3° (Epoch: 24 November)

Event Time Altitude Azimuth Distance (km) Brightness Sun altitude
Rises 22:41:39 0° 289° (WNW) 3,713 11.3 -10.1°
Reaches altitude 10° 22:44:15 10° 289° (WNW) 2,794 10.6 -10.7°
Maximum altitude 22:51:05 82° 16° (NNE) 1,075 7.7 -12.1°
Drops below altitude 10° 22:58:25 10° 103° (ESE) 2,985 9.6 -13.6°
Enters shadow 22:58:40 - 103° (ESE) 3,070 9.6 -13.6°
Sets 23:01:17 0° 103° (ESE) 3,982 - -14.2°
